Time,TemperatureF,DewpointF,PressureIn,WindDirection,WindDirectionDegrees,WindSpeedMPH,WindSpeedGustMPH,Humidity,HourlyPrecipIn,Conditions,Clouds,dailyrainin,SoftwareType,DateUTC
2013-05-29 00:03:00,78.0,-99.9,30.07,East,96,19.0,23.0,-999,-99.99,,,-99.99,,2013-05-29 04:03:00,
2013-05-29 00:13:00,78.0,-99.9,30.07,East,93,19.0,22.0,-999,-99.99,,,-99.99,,2013-05-29 04:13:00,
2013-05-29 00:23:00,78.0,-99.9,30.07,East,92,21.0,23.0,-999,-99.99,,,-99.99,,2013-05-29 04:23:00,
2013-05-29 00:33:00,78.0,-99.9,30.06,East,96,20.0,23.0,-999,-99.99,,,-99.99,,2013-05-29 04:33:00,
2013-05-29 00:42:00,78.0,-99.9,30.06,East,90,19.0,23.0,-999,-99.99,,,-99.99,,2013-05-29 04:42:00,
2013-05-29 00:53:00,78.0,-99.9,30.06,East,87,18.0,22.0,-999,-99.99,,,-99.99,,2013-05-29 04:53:00,
2013-05-29 01:03:00,78.0,-99.9,30.06,East,88,20.0,22.0,-999,-99.99,,,-99.99,,2013-05-29 05:03:00,
2013-05-29 01:12:00,78.0,-99.9,30.06,East,86,20.0,23.0,-999,-99.99,,,-99.99,,2013-05-29 05:12:00,
2013-05-29 01:22:00,78.0,-99.9,30.06,East,85,19.0,23.0,-999,-99.99,,,-99.99,,2013-05-29 05:22:00,
2013-05-29 01:33:00,78.0,-99.9,30.06,East,82,20.0,23.0,-999,-99.99,,,-99.99,,2013-05-29 05:33:00,
2013-05-29 01:42:00,78.0,-99.9,30.05,East,87,20.0,23.0,-999,-99.99,,,-99.99,,2013-05-29 05:42:00,
2013-05-29 01:52:00,78.0,-99.9,30.05,East,90,19.0,22.0,-999,-99.99,,,-99.99,,2013-05-29 05:52:00,
2013-05-29 02:02:00,76.0,-99.9,30.04,ESE,113,25.0,28.0,-999,-99.99,,,-99.99,,2013-05-29 06:02:00,
2013-05-29 02:12:00,74.0,-99.9,30.05,SE,129,21.0,25.0,-999,-99.99,,,-99.99,,2013-05-29 06:12:00,
2013-05-29 02:22:00,75.0,-99.9,30.04,SE,127,18.0,21.0,-999,-99.99,,,-99.99,,2013-05-29 06:22:00,
2013-05-29 02:32:00,76.0,-99.9,30.03,SE,131,14.0,17.0,-999,-99.99,,,-99.99,,2013-05-29 06:32:00,
2013-05-29 02:42:00,78.0,-99.9,30.03,ESE,106,15.0,18.0,-999,-99.99,,,-99.99,,2013-05-29 06:42:00,
2013-05-29 02:52:00,78.0,-99.9,30.03,ESE,102,18.0,21.0,-999,-99.99,,,-99.99,,2013-05-29 06:52:00,
2013-05-29 03:01:00,77.0,-99.9,30.03,East,96,18.0,20.0,-999,-99.99,,,-99.99,,2013-05-29 07:01:00,
2013-05-29 03:12:00,78.0,-99.9,30.03,East,101,17.0,20.0,-999,-99.99,,,-99.99,,2013-05-29 07:12:00,
2013-05-29 03:22:00,78.0,-99.9,30.03,East,100,17.0,19.0,-999,-99.99,,,-99.99,,2013-05-29 07:22:00,
2013-05-29 03:35:00,78.0,-99.9,30.03,East,94,16.0,19.0,-999,-99.99,,,-99.99,,2013-05-29 07:35:00,
2013-05-29 03:42:00,78.0,-99.9,30.02,East,85,15.0,20.0,-999,-99.99,,,-99.99,,2013-05-29 07:42:00,
2013-05-29 03:53:00,78.0,-99.9,30.02,East,82,16.0,19.0,-999,-99.99,,,-99.99,,2013-05-29 07:53:00,
2013-05-29 04:02:00,78.0,-99.9,30.01,East,88,16.0,19.0,-999,-99.99,,,-99.99,,2013-05-29 08:02:00,
2013-05-29 04:11:00,78.0,-99.9,30.01,East,95,21.0,28.0,-999,-99.99,,,-99.99,,2013-05-29 08:11:00,
2013-05-29 04:22:00,76.0,-99.9,30.01,ESE,113,22.0,26.0,-999,-99.99,,,-99.99,,2013-05-29 08:22:00,
2013-05-29 04:32:00,76.0,-99.9,30.01,ESE,112,25.0,30.0,-999,-99.99,,,-99.99,,2013-05-29 08:32:00,
2013-05-29 04:42:00,73.0,-99.9,30.02,SE,125,13.0,31.0,-999,-99.99,,,-99.99,,2013-05-29 08:42:00,
2013-05-29 04:52:00,74.0,-99.9,30.02,SE,144,20.0,24.0,-999,-99.99,,,-99.99,,2013-05-29 08:52:00,
2013-05-29 05:02:00,74.0,-99.9,30.01,SSE,168,13.0,16.0,-999,-99.99,,,-99.99,,2013-05-29 09:02:00,
2013-05-29 05:11:00,78.0,-99.9,30.00,ESE,107,21.0,25.0,-999,-99.99,,,-99.99,,2013-05-29 09:11:00,
2013-05-29 05:22:00,79.0,-99.9,30.00,ESE,108,24.0,27.0,-999,-99.99,,,-99.99,,2013-05-29 09:22:00,
2013-05-29 05:33:00,73.0,-99.9,30.02,SSW,205,9.0,15.0,-999,-99.99,,,-99.99,,2013-05-29 09:33:00,
2013-05-29 05:42:00,75.0,-99.9,30.01,ENE,77,6.0,13.0,-999,-99.99,,,-99.99,,2013-05-29 09:42:00,
2013-05-29 05:53:00,78.0,-99.9,30.01,East,98,21.0,25.0,-999,-99.99,,,-99.99,,2013-05-29 09:53:00,
2013-05-29 06:03:00,78.0,-99.9,30.01,East,96,23.0,28.0,-999,-99.99,,,-99.99,,2013-05-29 10:03:00,
2013-05-29 06:12:00,72.0,-99.9,30.01,SE,128,28.0,33.0,-999,-99.99,,,-99.99,,2013-05-29 10:12:00,
2013-05-29 06:22:00,73.0,-99.9,30.02,SE,130,21.0,27.0,-999,-99.99,,,-99.99,,2013-05-29 10:22:00,
2013-05-29 06:33:00,74.0,-99.9,30.01,ESE,121,21.0,26.0,-999,-99.99,,,-99.99,,2013-05-29 10:33:00,
2013-05-29 06:42:00,78.0,-99.9,30.01,ESE,116,24.0,28.0,-999,-99.99,,,-99.99,,2013-05-29 10:42:00,
2013-05-29 06:53:00,78.0,-99.9,30.02,ESE,115,25.0,28.0,-999,-99.99,,,-99.99,,2013-05-29 10:53:00,
2013-05-29 07:02:00,78.0,-99.9,30.03,ESE,112,21.0,25.0,-999,-99.99,,,-99.99,,2013-05-29 11:02:00,
2013-05-29 07:12:00,78.0,-99.9,30.04,ESE,116,19.0,26.0,-999,-99.99,,,-99.99,,2013-05-29 11:12:00,
2013-05-29 07:22:00,77.0,-99.9,30.04,East,92,20.0,25.0,-999,-99.99,,,-99.99,,2013-05-29 11:22:00,
2013-05-29 07:32:00,77.0,-99.9,30.04,ENE,67,18.0,21.0,-999,-99.99,,,-99.99,,2013-05-29 11:32:00,
2013-05-29 07:42:00,78.0,-99.9,30.04,East,92,21.0,26.0,-999,-99.99,,,-99.99,,2013-05-29 11:42:00,
2013-05-29 07:52:00,78.0,-99.9,30.04,East,86,22.0,26.0,-999,-99.99,,,-99.99,,2013-05-29 11:52:00,
2013-05-29 08:01:00,78.0,-99.9,30.04,East,89,22.0,25.0,-999,-99.99,,,-99.99,,2013-05-29 12:01:00,
2013-05-29 08:11:00,78.0,-99.9,30.04,East,91,22.0,28.0,-999,-99.99,,,-99.99,,2013-05-29 12:11:00,
2013-05-29 08:22:00,78.0,-99.9,30.04,East,92,21.0,26.0,-999,-99.99,,,-99.99,,2013-05-29 12:22:00,
2013-05-29 08:32:00,76.0,-99.9,30.06,ESE,116,25.0,28.0,-999,-99.99,,,-99.99,,2013-05-29 12:32:00,
2013-05-29 08:42:00,77.0,-99.9,30.06,ESE,107,23.0,27.0,-999,-99.99,,,-99.99,,2013-05-29 12:42:00,
2013-05-29 08:52:00,76.0,-99.9,30.05,ESE,118,21.0,26.0,-999,-99.99,,,-99.99,,2013-05-29 12:52:00,
2013-05-29 09:02:00,77.0,-99.9,30.05,ESE,108,23.0,30.0,-999,-99.99,,,-99.99,,2013-05-29 13:02:00,
2013-05-29 09:11:00,77.0,-99.9,30.06,East,101,23.0,26.0,-999,-99.99,,,-99.99,,2013-05-29 13:11:00,
2013-05-29 09:22:00,77.0,-99.9,30.06,ESE,103,24.0,28.0,-999,-99.99,,,-99.99,,2013-05-29 13:22:00,
2013-05-29 09:32:00,77.0,-99.9,30.05,ESE,112,22.0,26.0,-999,-99.99,,,-99.99,,2013-05-29 13:32:00,
2013-05-29 09:42:00,76.0,-99.9,30.06,SE,124,17.0,23.0,-999,-99.99,,,-99.99,,2013-05-29 13:42:00,
2013-05-29 09:53:00,77.0,-99.9,30.06,ESE,119,16.0,19.0,-999,-99.99,,,-99.99,,2013-05-29 13:53:00,
2013-05-29 10:02:00,77.0,-99.9,30.06,ESE,103,19.0,25.0,-999,-99.99,,,-99.99,,2013-05-29 14:02:00,
2013-05-29 10:11:00,78.0,-99.9,30.06,East,101,20.0,22.0,-999,-99.99,,,-99.99,,2013-05-29 14:11:00,
2013-05-29 10:22:00,79.0,-99.9,30.06,ESE,120,22.0,26.0,-999,-99.99,,,-99.99,,2013-05-29 14:22:00,
2013-05-29 10:32:00,79.0,-99.9,30.07,ESE,113,21.0,26.0,-999,-99.99,,,-99.99,,2013-05-29 14:32:00,
2013-05-29 10:42:00,79.0,-99.9,30.07,ESE,118,21.0,24.0,-999,-99.99,,,-99.99,,2013-05-29 14:42:00,
2013-05-29 10:52:00,79.0,-99.9,30.07,ESE,116,20.0,23.0,-999,-99.99,,,-99.99,,2013-05-29 14:52:00,
2013-05-29 11:01:00,79.0,-99.9,30.07,ESE,116,20.0,24.0,-999,-99.99,,,-99.99,,2013-05-29 15:01:00,
2013-05-29 11:11:00,79.0,-99.9,30.07,ESE,116,20.0,24.0,-999,-99.99,,,-99.99,,2013-05-29 15:11:00,
2013-05-29 11:33:00,79.0,-99.9,30.07,ESE,117,23.0,25.0,-999,-99.99,,,-99.99,,2013-05-29 15:33:00,
2013-05-29 11:43:00,79.0,-99.9,30.07,ESE,118,19.0,23.0,-999,-99.99,,,-99.99,,2013-05-29 15:43:00,
2013-05-29 11:53:00,79.0,-99.9,30.07,ESE,118,18.0,22.0,-999,-99.99,,,-99.99,,2013-05-29 15:53:00,
2013-05-29 12:03:00,79.0,-99.9,30.08,ESE,116,20.0,24.0,-999,-99.99,,,-99.99,,2013-05-29 16:03:00,
2013-05-29 12:13:00,79.0,-99.9,30.08,ESE,104,21.0,24.0,-999,-99.99,,,-99.99,,2013-05-29 16:13:00,
2013-05-29 12:22:00,79.0,-99.9,30.08,ESE,110,20.0,23.0,-999,-99.99,,,-99.99,,2013-05-29 16:22:00,
2013-05-29 12:33:00,79.0,-99.9,30.07,ESE,118,22.0,25.0,-999,-99.99,,,-99.99,,2013-05-29 16:33:00,
2013-05-29 12:42:00,79.0,-99.9,30.07,ESE,114,25.0,29.0,-999,-99.99,,,-99.99,,2013-05-29 16:42:00,
2013-05-29 12:52:00,79.0,-99.9,30.07,ESE,109,24.0,28.0,-999,-99.99,,,-99.99,,2013-05-29 16:52:00,
2013-05-29 13:02:00,79.0,-99.9,30.08,ESE,115,21.0,25.0,-999,-99.99,,,-99.99,,2013-05-29 17:02:00,
2013-05-29 13:12:00,79.0,-99.9,30.08,ESE,116,20.0,23.0,-999,-99.99,,,-99.99,,2013-05-29 17:12:00,
2013-05-29 13:22:00,79.0,-99.9,30.08,ESE,114,19.0,22.0,-999,-99.99,,,-99.99,,2013-05-29 17:22:00,
2013-05-29 13:33:00,79.0,-99.9,30.08,ESE,110,17.0,21.0,-999,-99.99,,,-99.99,,2013-05-29 17:33:00,
2013-05-29 13:43:00,80.0,-99.9,30.08,ESE,106,19.0,22.0,-999,-99.99,,,-99.99,,2013-05-29 17:43:00,
2013-05-29 13:52:00,80.0,-99.9,30.07,ESE,109,19.0,22.0,-999,-99.99,,,-99.99,,2013-05-29 17:52:00,
2013-05-29 14:02:00,80.0,-99.9,30.08,ESE,106,19.0,23.0,-999,-99.99,,,-99.99,,2013-05-29 18:02:00,
2013-05-29 14:13:00,79.0,-99.9,30.07,ESE,106,20.0,22.0,-999,-99.99,,,-99.99,,2013-05-29 18:13:00,
2013-05-29 14:22:00,79.0,-99.9,30.07,ESE,107,18.0,22.0,-999,-99.99,,,-99.99,,2013-05-29 18:22:00,
2013-05-29 14:32:00,75.0,-99.9,30.07,ESE,123,31.0,35.0,-999,-99.99,,,-99.99,,2013-05-29 18:32:00,
2013-05-29 14:42:00,75.0,-99.9,30.07,ESE,123,31.0,35.0,-999,-99.99,,,-99.99,,2013-05-29 18:42:00,
2013-05-29 14:52:00,74.0,-99.9,30.07,ESE,113,25.0,28.0,-999,-99.99,,,-99.99,,2013-05-29 18:52:00,
2013-05-29 15:02:00,75.0,-99.9,30.07,ESE,117,23.0,27.0,-999,-99.99,,,-99.99,,2013-05-29 19:02:00,
2013-05-29 15:12:00,76.0,-99.9,30.07,ESE,104,18.0,21.0,-999,-99.99,,,-99.99,,2013-05-29 19:12:00,
2013-05-29 15:22:00,76.0,-99.9,30.06,ESE,106,17.0,20.0,-999,-99.99,,,-99.99,,2013-05-29 19:22:00,
2013-05-29 15:32:00,76.0,-99.9,30.06,ESE,104,13.0,16.0,-999,-99.99,,,-99.99,,2013-05-29 19:32:00,
2013-05-29 15:44:00,78.0,-99.9,30.06,ESE,110,14.0,15.0,-999,-99.99,,,-99.99,,2013-05-29 19:44:00,
2013-05-29 15:53:00,78.0,-99.9,30.06,ESE,109,13.0,16.0,-999,-99.99,,,-99.99,,2013-05-29 19:53:00,
2013-05-29 16:03:00,78.0,-99.9,30.04,ESE,102,15.0,18.0,-999,-99.99,,,-99.99,,2013-05-29 20:03:00,
2013-05-29 16:12:00,78.0,-99.9,30.04,ESE,102,19.0,21.0,-999,-99.99,,,-99.99,,2013-05-29 20:12:00,
2013-05-29 16:23:00,79.0,-99.9,30.04,East,96,19.0,23.0,-999,-99.99,,,-99.99,,2013-05-29 20:23:00,
2013-05-29 16:33:00,77.0,-99.9,30.04,East,97,26.0,29.0,-999,-99.99,,,-99.99,,2013-05-29 20:33:00,
2013-05-29 16:42:00,78.0,-99.9,30.04,East,100,23.0,27.0,-999,-99.99,,,-99.99,,2013-05-29 20:42:00,
2013-05-29 16:53:00,79.0,-99.9,30.04,ESE,103,26.0,29.0,-999,-99.99,,,-99.99,,2013-05-29 20:53:00,
2013-05-29 17:02:00,77.0,-99.9,30.04,ESE,116,23.0,28.0,-999,-99.99,,,-99.99,,2013-05-29 21:02:00,
2013-05-29 17:12:00,79.0,-99.9,30.03,ESE,105,23.0,25.0,-999,-99.99,,,-99.99,,2013-05-29 21:12:00,
2013-05-29 17:22:00,78.0,-99.9,30.03,East,99,22.0,27.0,-999,-99.99,,,-99.99,,2013-05-29 21:22:00,
2013-05-29 17:34:00,78.0,-99.9,30.03,ESE,107,18.0,23.0,-999,-99.99,,,-99.99,,2013-05-29 21:34:00,
2013-05-29 17:44:00,78.0,-99.9,30.04,ESE,105,17.0,21.0,-999,-99.99,,,-99.99,,2013-05-29 21:44:00,
2013-05-29 17:53:00,78.0,-99.9,30.04,ESE,105,17.0,21.0,-999,-99.99,,,-99.99,,2013-05-29 21:53:00,
2013-05-29 18:03:00,79.0,-99.9,30.04,ESE,107,20.0,22.0,-999,-99.99,,,-99.99,,2013-05-29 22:03:00,
2013-05-29 18:13:00,75.0,-99.9,30.03,SSE,154,29.0,33.0,-999,-99.99,,,-99.99,,2013-05-29 22:13:00,
2013-05-29 18:23:00,74.0,-99.9,30.03,SSE,155,28.0,34.0,-999,-99.99,,,-99.99,,2013-05-29 22:23:00,
2013-05-29 18:34:00,75.0,-99.9,30.03,SSE,157,19.0,26.0,-999,-99.99,,,-99.99,,2013-05-29 22:34:00,
2013-05-29 18:43:00,76.0,-99.9,30.02,SSE,153,18.0,21.0,-999,-99.99,,,-99.99,,2013-05-29 22:43:00,
2013-05-29 18:53:00,76.0,-99.9,30.02,SE,136,18.0,20.0,-999,-99.99,,,-99.99,,2013-05-29 22:53:00,
2013-05-29 19:02:00,77.0,-99.9,30.02,SE,132,20.0,23.0,-999,-99.99,,,-99.99,,2013-05-29 23:02:00,
2013-05-29 19:12:00,76.0,-99.9,30.01,SE,126,21.0,26.0,-999,-99.99,,,-99.99,,2013-05-29 23:12:00,
2013-05-29 19:22:00,74.0,-99.9,30.02,ESE,116,24.0,28.0,-999,-99.99,,,-99.99,,2013-05-29 23:22:00,
2013-05-29 19:33:00,76.0,-99.9,30.02,SE,124,19.0,26.0,-999,-99.99,,,-99.99,,2013-05-29 23:33:00,
2013-05-29 19:43:00,77.0,-99.9,30.02,SE,124,12.0,19.0,-999,-99.99,,,-99.99,,2013-05-29 23:43:00,
2013-05-29 19:53:00,78.0,-99.9,30.02,ESE,113,14.0,18.0,-999,-99.99,,,-99.99,,2013-05-29 23:53:00,
2013-05-29 20:02:00,79.0,-99.9,30.02,East,88,20.0,23.0,-999,-99.99,,,-99.99,,2013-05-30 00:02:00,
2013-05-29 20:12:00,79.0,-99.9,30.02,East,87,23.0,27.0,-999,-99.99,,,-99.99,,2013-05-30 00:12:00,
2013-05-29 20:22:00,79.0,-99.9,30.02,East,87,23.0,27.0,-999,-99.99,,,-99.99,,2013-05-30 00:22:00,
2013-05-29 20:32:00,79.0,-99.9,30.03,East,93,21.0,27.0,-999,-99.99,,,-99.99,,2013-05-30 00:32:00,
2013-05-29 20:42:00,79.0,-99.9,30.03,East,89,23.0,27.0,-999,-99.99,,,-99.99,,2013-05-30 00:42:00,
2013-05-29 20:52:00,79.0,-99.9,30.03,East,85,20.0,25.0,-999,-99.99,,,-99.99,,2013-05-30 00:52:00,
2013-05-29 21:02:00,79.0,-99.9,30.03,East,93,23.0,27.0,-999,-99.99,,,-99.99,,2013-05-30 01:02:00,
2013-05-29 21:11:00,79.0,-99.9,30.03,East,96,22.0,26.0,-999,-99.99,,,-99.99,,2013-05-30 01:11:00,
2013-05-29 21:22:00,79.0,-99.9,30.03,East,95,23.0,25.0,-999,-99.99,,,-99.99,,2013-05-30 01:22:00,
2013-05-29 21:32:00,79.0,-99.9,30.04,East,90,21.0,28.0,-999,-99.99,,,-99.99,,2013-05-30 01:32:00,
2013-05-29 21:42:00,80.0,-99.9,30.04,East,90,26.0,28.0,-999,-99.99,,,-99.99,,2013-05-30 01:42:00,
2013-05-29 21:52:00,79.0,-99.9,30.04,East,94,25.0,28.0,-999,-99.99,,,-99.99,,2013-05-30 01:52:00,
2013-05-29 22:02:00,80.0,-99.9,30.04,East,92,24.0,28.0,-999,-99.99,,,-99.99,,2013-05-30 02:02:00,
2013-05-29 22:12:00,79.0,-99.9,30.04,East,93,22.0,27.0,-999,-99.99,,,-99.99,,2013-05-30 02:12:00,
2013-05-29 22:22:00,79.0,-99.9,30.04,East,95,21.0,26.0,-999,-99.99,,,-99.99,,2013-05-30 02:22:00,
2013-05-29 22:32:00,79.0,-99.9,30.04,East,99,21.0,24.0,-999,-99.99,,,-99.99,,2013-05-30 02:32:00,
2013-05-29 22:42:00,79.0,-99.9,30.04,East,99,21.0,24.0,-999,-99.99,,,-99.99,,2013-05-30 02:42:00,
2013-05-29 22:52:00,79.0,-99.9,30.04,East,99,21.0,24.0,-999,-99.99,,,-99.99,,2013-05-30 02:52:00,
2013-05-29 23:02:00,79.0,-99.9,30.06,East,91,20.0,28.0,-999,-99.99,,,-99.99,,2013-05-30 03:02:00,
2013-05-29 23:12:00,80.0,-99.9,30.05,East,89,23.0,27.0,-999,-99.99,,,-99.99,,2013-05-30 03:12:00,
2013-05-29 23:22:00,79.0,-99.9,30.05,East,94,21.0,27.0,-999,-99.99,,,-99.99,,2013-05-30 03:22:00,
2013-05-29 23:33:00,79.0,-99.9,30.05,East,95,24.0,27.0,-999,-99.99,,,-99.99,,2013-05-30 03:33:00,
2013-05-29 23:43:00,80.0,-99.9,30.05,East,95,27.0,30.0,-999,-99.99,,,-99.99,,2013-05-30 03:43:00,
2013-05-29 23:53:00,80.0,-99.9,30.05,East,97,24.0,28.0,-999,-99.99,,,-99.99,,2013-05-30 03:53:00,